Regional Weather Roundup
Issued by NWS

Home | Current Version | Previous Version | Text Only | Print | Product List | Glossary On
Versions: 1 2 3 4 5 6 7 8 9 10 11 12 13 14 15 16 17 18 19 20 21 22 23 24 25 26 27 28 29 30 31 32 33 34 35 36 37 38 39 40 41 42 43 44 45 46 47 48 49 50
000
ASUS46 KPQR 241110
RWROR

OREGON REGIONAL WEATHER ROUNDUP
NATIONAL WEATHER SERVICE PORTLAND OR
400 AM PDT SAT JUN 24 2017

NOTE: "FAIR" INDICATES FEW OR NO CLOUDS BELOW 12,000 FEET WITH
NO SIGNIFICANT WEATHER AND/OR OBSTRUCTIONS TO VISIBILITY.

ORZ001>013-241200-
NORTHWEST OREGON


CITY           SKY/WX    TMP DP  RH WIND       PRES   REMARKS
ASTORIA        CLEAR     56  50  80 CALM      30.04F
NEWPORT        CLEAR     66  50  55 E12       29.98F
PORTLAND       CLEAR     62  51  67 W3        30.06R
VANCOUVER WA   CLEAR     60  51  72 CALM      30.05S
SCAPPOOSE      CLEAR     62  48  60 N3        30.05S
HILLSBORO      CLEAR     59  49  69 CALM      30.04S
AURORA         CLEAR     67  47  48 N14       30.02S
MCMINNVILLE    CLEAR     69  46  43 N9        30.02S
SALEM          CLEAR     59  49  69 CALM      30.00F
CORVALLIS      CLEAR     55  48  76 CALM      30.01S
EUGENE         CLEAR     58  52  80 MISG      29.99S
$$

ORZ021-028-241200-
SOUTHWEST OREGON


CITY           SKY/WX    TMP DP  RH WIND       PRES   REMARKS
NORTH BEND     CLEAR     54  50  87 W3        29.95S
BROOKINGS      CLEAR     53  51  93 CALM      29.96R
ROSEBURG       CLEAR     63  54  72 CALM      29.98R
SEXTON SUMMIT  CLEAR     71  46  40 E7        30.12S
GRANTS PASS    FAIR      61  52  72 CALM      30.03R
MEDFORD        CLEAR     65  54  67 CALM      30.00R
$$

ORZ014>016-041-241200-
COLUMBIA GORGE


CITY           SKY/WX    TMP DP  RH WIND       PRES   REMARKS
TROUTDALE      CLEAR     58  53  84 CALM      30.05R
HOOD RIVER     CLEAR     52  45  76 S3        30.14R
THE DALLES     CLEAR     56  42  59 S3        30.13R
$$

ORZ029>031-041-044-049-050-061>064-502-503-505>511-241200-
EASTERN OREGON


CITY           SKY/WX    TMP DP  RH WIND       PRES   REMARKS
MADRAS         NOT AVBL
REDMOND        CLEAR     47  29  49 S3        30.20S
BEND           NOT AVBL
PRINEVILLE     CLEAR     45  30  57 SW3       30.22S
KLAMATH FALLS    N/A    N/A N/A N/A MISG      30.18S
LAKEVIEW       CLEAR     63  34  33 N16       30.22S
HERMISTON      CLEAR     53  46  77 SE3       30.12R
PENDLETON      CLEAR     51  42  71 SE8       30.15R
JOHN DAY       CLEAR     53  38  58 CALM      30.23S
MEACHAM        CLEAR     39  34  82 CALM      30.25S
LA GRANDE      CLEAR     48  34  57 SW3       30.20S
BAKER CITY     CLEAR     47  40  76 SW3       30.22S
BURNS          CLEAR     46  34  62 W8        30.22F
ROME             N/A     49  32  52 SE6       30.20S
ONTARIO        CLEAR     59  42  53 CALM      30.15R
$$



USA.gov is the U.S. government's official web portal to all federal, state and local government web resources and services.